Home > Time Zones > World Clock > Weather > India > Theni > Past weeks

Flag for India Weather past 2 weeks in Theni, Tamil Nadu, India

Now
91 °F

Passing clouds.


Feels Like: 97 °F
Forecast: 72 / 92 °F
Wind: 5 mph from Southeast

Location: Coimbatore / Peelamedu

Current Time: Apr 25, 2015 at 2:57:10 PM

Latest Report: Apr 25, 2015 at 2:30 PM


Visibility: 4 mi

Pressure: 29.83 "Hg

Humidity: 49%

Dew point: 70 °F

Location of TheniLocation

Historic Weather in Theni — Graph

°F

Theni temperature yesterday

Maximum temperature yesterday: 93 °F (at 1:30 PM)
Minimum temperature yesterday: 72 °F (at 5:30 AM)
Average temperature yesterday: 85 °F

Past Weeks' High & Low Weather Summary

 TemperatureHumidityPressure
High97 °F (Apr 11, 3:00 PM)100% (Apr 16, 3:00 AM)30.07 "Hg (Apr 16, 3:00 AM)
Low70 °F (Apr 25, 3:30 AM)32% (Apr 10, 3:00 PM)29.74 "Hg (Apr 18, 3:00 PM)
Average83 °F66%29.91 "Hg
* Reported Apr 10 1:30 PM — Apr 25 2:00 PM, Theni, Weather by CustomWeather, © 2015

Note: Actual official high and low records may vary slightly from our data, if they occured in-between our weather recording intervals... More about our weather records

Advertising

Theni weather history for previous 24 hours

 ConditionsComfort  
Time TempWeatherWind HumidityBarometerVisibility
2:00 PM
Sat, Apr 25
91 °FScattered clouds.9 mph49%29.86 "Hg4 mi
1:30 PM91 °FScattered clouds.6 mph46%29.86 "Hg4 mi
1:00 PM90 °FPassing clouds.7 mph46%29.89 "Hg4 mi
12:30 PM90 °FPassing clouds.7 mph49%29.89 "Hg4 mi
12:00 PM88 °FHaze.8 mph52%29.92 "Hg3 mi
11:30 AM86 °FHaze.No wind52%29.95 "Hg3 mi
11:00 AM84 °FScattered clouds.6 mph62%29.95 "Hg3 mi
10:00 AM79 °FPartly sunny.No wind74%29.98 "Hg3 mi
9:00 AM77 °FFog.No wind74%29.98 "Hg2 mi
8:00 AM72 °FFog.No wind88%29.95 "Hg1 mi
7:30 AM70 °FFog.No wind94%29.95 "Hg1 mi
6:30 AM70 °FPartly cloudy.7 mph88%29.95 "Hg1 mi
6:00 AM72 °FPartly cloudy.9 mph88%29.92 "Hg2 mi
5:30 AM72 °FDrizzle. Mostly cloudy.6 mph88%29.92 "Hg2 mi
4:30 AM70 °FLight rain. Mostly cloudy.7 mph88%29.92 "Hg2 mi
3:30 AM70 °FThunderstorms. Mostly cloudy.No wind88%29.92 "Hg2 mi
3:00 AM72 °FLight rain. Partly cloudy.7 mph88%29.92 "Hg2 mi
2:30 AM72 °FLight rain. Partly cloudy.15 mph88%29.92 "Hg2 mi
12:30 AM77 °FHaze.5 mph83%29.92 "Hg3 mi
11:30 PM
Fri, Apr 24
79 °FHaze.12 mph79%29.89 "Hg3 mi
10:30 PM79 °FHaze.7 mph79%29.89 "Hg3 mi
10:00 PM79 °FHaze.6 mph79%29.89 "Hg3 mi
9:30 PM81 °FHaze.6 mph79%29.89 "Hg3 mi
8:30 PM82 °FPassing clouds.9 mph70%29.89 "Hg4 mi
8:00 PM86 °FPassing clouds.12 mph59%29.89 "Hg4 mi
7:30 PM86 °FPassing clouds.12 mph59%29.86 "Hg4 mi
7:00 PM88 °FPassing clouds.7 mph52%29.86 "Hg4 mi
6:30 PM90 °FPassing clouds.6 mph46%29.86 "Hg4 mi
6:00 PM91 °FPassing clouds.6 mph36%29.83 "Hg4 mi
5:30 PM93 °FPassing clouds.7 mph34%29.83 "Hg4 mi
5:00 PM93 °FPassing clouds.5 mph41%29.80 "Hg4 mi
4:30 PM93 °FPassing clouds.5 mph41%29.80 "Hg4 mi
4:00 PM93 °FPassing clouds.7 mph44%29.83 "Hg4 mi
3:30 PM93 °FPassing clouds.3 mph44%29.83 "Hg4 mi
3:00 PM93 °FPassing clouds.6 mph44%29.83 "Hg4 mi
2:30 PM93 °FPassing clouds.No wind44%29.83 "Hg4 mi
2:00 PM93 °FPassing clouds.5 mph47%29.83 "Hg4 mi
Weather by CustomWeather, © 2015

See weather overviewHow to use our weather pages